CW6888 Weather Reports


time (UTC)temp
C
wind
direction
speed
KPH
gust
KPH
rain 1hr
cm
rain 24hr
cm
rain mn
cm
humidity
%
barometer
mb
20260510072836 9 12 1.6 8.0 0.00 0.00 0.00 91 1012.2
20260510071843 9 11 0.0 0.0 0.00 0.00 0.00 92 1011.5
20260510070815 9 317 0.0 4.8 0.00 0.00 0.00 91 1011.5
20260510065850 8 26 0.0 0.0 0.00 0.00 0.00 90 1011.5
20260510064821 9 216 0.0 0.0 0.00 0.00 0.00 91 1011.1
20260510063833 8 216 0.0 0.0 0.00 0.00 0.00 90 1011.1
20260510062844 8 215 0.0 0.0 0.00 0.00 0.00 90 1011.2
20260510061834 8 215 0.0 0.0 0.00 0.00 0.00 90 1011.0
20260510060816 9 215 0.0 0.0 0.00 0.00 0.00 90 1011.1
20260510055830 9 215 0.0 0.0 0.00 0.00 0.00 90 1011.0
20260510054814 9 215 0.0 0.0 0.00 0.00 0.00 90 1011.1
20260510053834 9 215 0.0 0.0 0.00 0.00 0.00 89 1011.1
20260510052816 10 360 0.0 0.0 0.00 0.00 0.00 89 1011.1
20260510051858 10 360 0.0 0.0 0.00 0.00 0.00 89 1011.2
20260510050818 10 215 0.0 0.0 0.00 0.00 0.00 89 1011.3
20260510045830 10 215 0.0 0.0 0.00 0.00 0.00 89 1011.3
20260510044842 10 360 0.0 0.0 0.00 0.00 0.00 88 1011.3
20260510043828 10 360 0.0 0.0 0.00 0.00 0.00 88 1011.4
20260510042821 11 215 0.0 0.0 0.00 0.00 0.00 88 1011.4
20260510041832 11 215 0.0 0.0 0.00 0.00 0.00 88 1011.3
20260510040815 11 215 0.0 0.0 0.00 0.00 0.00 89 1011.4
20260510035830 11 360 0.0 0.0 0.00 0.00 0.00 88 1011.4
20260510034813 11 360 0.0 0.0 0.00 0.00 0.00 87 1011.4
20260510033853 11 215 0.0 0.0 0.00 0.00 0.00 86 1011.4
20260510032814 11 360 0.0 0.0 0.00 0.00 0.00 86 1011.5
20260510031836 12 215 0.0 0.0 0.00 0.00 0.00 87 1011.5
20260510030817 12 215 0.0 0.0 0.00 0.00 0.00 87 1011.4
20260510025835 12 215 0.0 0.0 0.00 0.00 0.00 86 1011.4
20260510024846 12 215 0.0 0.0 0.00 0.00 0.00 86 1011.3
20260510023837 12 216 0.0 0.0 0.00 0.00 0.00 85 1011.3
20260510022827 12 216 0.0 0.0 0.00 0.00 0.00 86 1011.2
20260510021822 12 216 0.0 0.0 0.00 0.00 0.00 85 1011.1
20260510020835 12 216 0.0 0.0 0.00 0.00 0.00 85 1011.1
20260510015821 12 216 0.0 0.0 0.00 0.00 0.00 85 1011.0
20260510014832 12 360 0.0 0.0 0.00 0.00 0.00 85 1011.0
20260510013815 13 216 0.0 0.0 0.00 0.00 0.00 84 1010.9
20260510012826 13 216 0.0 0.0 0.00 0.00 0.00 84 1010.7
20260510011818 13 216 0.0 0.0 0.00 0.00 0.00 83 1010.7
20260510010825 13 216 0.0 0.0 0.00 0.00 0.00 83 1010.5
20260510005832 13 216 0.0 0.0 0.00 0.00 0.00 83 1010.3
20260510004822 13 216 0.0 0.0 0.00 0.00 0.00 82 1010.2
20260510003813 14 216 0.0 0.0 0.00 0.00 0.00 82 1010.2
20260510002826 14 216 0.0 0.0 0.00 0.00 0.00 81 1010.1
20260510001821 14 216 0.0 0.0 0.00 0.00 0.00 81 1010.0
20260510000835 15 216 0.0 0.0 0.00 0.00 0.00 80 1010.0
20260509235819 15 216 0.0 1.6 0.00 0.00 0.00 80 1010.1
20260509234833 15 216 1.6 1.6 0.00 0.00 0.00 78 1010.0
20260509233815 16 113 0.0 0.0 0.00 0.00 0.00 78 1010.1
20260509232827 16 113 0.0 1.6 0.00 0.00 0.00 77 1010.1
20260509231850 16 113 1.6 4.8 0.00 0.00 0.00 76 1010.0
20260509230840 17 42 0.0 3.2 0.00 0.00 0.00 75 1009.9
20260509225826 17 42 1.6 6.4 0.00 0.00 0.00 74 1009.9
20260509224841 17 78 1.6 4.8 0.00 0.00 0.00 75 1010.0
20260509223825 17 121 0.0 8.0 0.00 0.00 0.00 74 1009.9
20260509222818 17 9 0.0 0.0 0.00 0.00 0.00 75 1009.9
20260509221831 17 63 0.0 0.0 0.00 0.00 0.00 75 1009.9
20260509220825 17 63 0.0 1.6 0.00 0.00 0.00 75 1010.0
20260509215830 16 19 0.0 3.2 0.00 0.00 0.00 77 1010.0
20260509214822 16 23 0.0 3.2 0.00 0.00 0.00 77 1010.1
20260509213814 16 43 0.0 4.8 0.00 0.00 0.00 77 1010.2
20260509212847 16 44 1.6 6.4 0.00 0.00 0.00 79 1010.2
20260509211819 16 26 1.6 4.8 0.00 0.00 0.00 78 1010.1
20260509210846 15 38 4.8 6.4 0.00 0.00 0.00 79 1010.1
20260509205902 15 88 0.0 4.8 0.00 0.00 0.00 79 1010.1
20260509204822 15 76 1.6 8.0 0.00 0.00 0.00 79 1010.2
20260509203814 15 33 1.6 4.8 0.00 0.00 0.00 77 1010.2
20260509202825 15 32 1.6 6.4 0.00 0.00 0.00 79 1010.3
20260509201817 15 39 1.6 4.8 0.00 0.00 0.00 78 1010.4
20260509200829 16 34 3.2 6.4 0.00 0.00 0.00 77 1010.5
20260509195830 16 48 3.2 6.4 0.00 0.00 0.00 77 1010.4
20260509194825 16 108 1.6 3.2 0.00 0.00 0.00 77 1010.5
20260509193816 16 132 1.6 4.8 0.00 0.00 0.00 77 1010.5
20260509192828 16 78 0.0 3.2 0.00 0.00 0.00 77 1010.7
20260509191823 16 126 1.6 4.8 0.00 0.00 0.00 76 1010.5
20260509190834 16 341 1.6 4.8 0.00 0.00 0.00 78 1010.4
20260509185836 15 85 1.6 3.2 0.00 0.00 0.00 77 1010.6
20260509184827 15 83 1.6 3.2 0.00 0.00 0.00 79 1010.9
20260509183821 15 82 0.0 4.8 0.00 0.00 0.00 81 1011.1
20260509182815 15 82 3.2 4.8 0.00 0.00 0.00 79 1011.4
20260509181844 15 38 1.6 6.4 0.00 0.00 0.00 78 1011.6
20260509180816 15 327 1.6 6.4 0.00 0.00 0.00 76 1012.1
20260509175822 15 31 4.8 8.0 0.00 0.00 0.00 75 1011.9
20260509174817 15 35 3.2 6.4 0.00 0.00 0.00 74 1011.8
20260509173836 15 29 6.4 11.3 0.00 0.00 0.00 73 1011.8
20260509172828 15 34 4.8 8.0 0.00 0.00 0.00 73 1012.0
20260509171839 15 36 1.6 8.0 0.00 0.00 0.00 73 1012.2
20260509170852 15 26 1.6 6.4 0.00 0.00 0.00 72 1012.0
20260509165838 15 40 4.8 8.0 0.00 0.00 0.00 72 1012.2
20260509164849 15 35 4.8 11.3 0.00 0.00 0.00 74 1012.1
20260509163821 15 344 3.2 6.4 0.00 0.00 0.00 71 1012.3
20260509162815 15 58 3.2 8.0 0.00 0.00 0.00 71 1012.2
20260509161827 15 319 4.8 6.4 0.00 0.00 0.00 72 1012.2
20260509160823 15 151 3.2 9.7 0.00 0.00 0.00 70 1012.2
20260509155829 15 32 1.6 8.0 0.00 0.00 0.00 73 1012.1
20260509154821 15 205 1.6 6.4 0.00 0.00 0.00 75 1012.0
20260509153832 14 259 1.6 4.8 0.00 0.00 0.00 80 1012.1
20260509152815 13 28 1.6 4.8 0.00 0.00 0.00 82 1011.9
20260509151838 13 67 1.6 4.8 0.00 0.00 0.00 81 1012.2
20260509150832 13 171 1.6 4.8 0.00 0.00 0.00 81 1012.6
20260509145837 12 219 0.0 3.2 0.00 0.00 0.00 82 1012.9
20260509144836 12 179 1.6 3.2 0.00 0.00 0.00 83 1013.1
20260509143822 12 185 0.0 1.6 0.00 0.00 0.00 83 1012.9
20260509142818 12 159 0.0 1.6 0.00 0.00 0.00 83 1012.7
20260509141815 12 314 0.0 0.0 0.00 0.00 0.00 82 1012.8
20260509140833 12 265 0.0 3.2 0.00 0.00 0.00 81 1012.6
20260509135826 12 19 0.0 3.2 0.00 0.00 0.00 81 1012.3
20260509134816 13 198 0.0 3.2 0.00 0.00 0.00 80 1012.2
20260509133829 13 188 0.0 3.2 0.00 0.00 0.00 77 1012.3
20260509132822 13 188 0.0 3.2 0.00 0.00 0.00 75 1012.4
20260509131837 13 166 1.6 4.8 0.00 0.00 0.00 75 1012.2
20260509130829 13 155 1.6 4.8 0.00 0.00 0.00 75 1012.2
20260509125818 13 146 3.2 4.8 0.00 0.00 0.00 75 1012.2
20260509124818 13 86 1.6 4.8 0.00 0.00 0.00 76 1012.1
20260509123814 13 121 3.2 4.8 0.00 0.00 0.00 75 1012.2
20260509122826 13 86 3.2 4.8 0.00 0.00 0.00 75 1012.1
20260509121840 13 173 3.2 6.4 0.00 0.00 0.00 75 1012.0
20260509120825 12 172 3.2 4.8 0.00 0.00 0.00 75 1012.1
20260509115841 12 173 1.6 4.8 0.00 0.00 0.00 76 1012.2
20260509114826 12 172 3.2 6.4 0.00 0.00 0.00 76 1012.0
20260509113819 12 187 0.0 0.0 0.00 0.00 0.00 76 1012.0
20260509112900 12 187 0.0 0.0 0.00 0.00 0.00 75 1011.9
20260509111850 12 187 0.0 0.0 0.00 0.00 0.00 74 1011.8
20260509110842 12 187 0.0 0.0 0.00 0.00 0.00 74 1011.7
20260509105828 12 187 0.0 0.0 0.00 0.00 0.00 74 1011.6
20260509104840 12 187 0.0 0.0 0.00 0.00 0.00 74 1011.5
20260509103826 12 187 0.0 0.0 0.00 0.00 0.00 74 1011.6
20260509102820 12 187 0.0 0.0 0.00 0.00 0.00 73 1011.4
20260509101830 11 187 0.0 0.0 0.00 0.00 0.00 74 1011.4
20260509100841 12 187 0.0 0.0 0.00 0.00 0.00 72 1011.3
20260509095826 12 187 0.0 0.0 0.00 0.00 0.00 73 1011.3
20260509094816 12 187 0.0 3.2 0.00 0.00 0.00 71 1011.2
20260509093828 12 187 1.6 3.2 0.00 0.00 0.00 71 1011.3
20260509092840 12 187 1.6 3.2 0.00 0.00 0.00 71 1011.4
20260509091853 12 187 1.6 3.2 0.00 0.00 0.00 71 1011.4
20260509090843 12 187 0.0 3.2 0.00 0.00 0.00 71 1011.4
20260509085827 12 187 1.6 4.8 0.00 0.00 0.00 71 1011.4
20260509084819 12 183 3.2 4.8 0.00 0.00 0.00 71 1011.4
20260509083832 12 180 1.6 4.8 0.00 0.00 0.00 71 1011.6
20260509082824 12 180 3.2 6.4 0.00 0.00 0.00 71 1011.8
20260509081835 12 179 1.6 4.8 0.00 0.00 0.00 71 1011.7
20260509080846 12 179 3.2 6.4 0.00 0.00 0.00 71 1011.8
20260509075826 12 178 3.2 6.4 0.00 0.00 0.00 71 1011.9
20260509074817 12 178 3.2 6.4 0.00 0.00 0.00 71 1011.9
20260509073830 12 178 3.2 4.8 0.00 0.00 0.00 71 1011.8